Other Public Products
Issued by NWS Grand Forks, ND

Home | Current Version | Previous Version | Text Only | Print | Product List | Glossary Off
Versions: 1 2 3 4 5 6 7 8 9 10 11 12 13 14 15 16 17 18 19 20 21 22 23 24 25 26 27 28 29 30 31 32 33 34 35 36 37 38 39 40 41 42 43 44 45 46 47 48 49 50

000
FPUS83 KFGF 251031
OPUFGF
PRAIRIE TO PINES WEATHER ROUNDUP
NATIONAL WEATHER SERVICE EASTERN NORTH DAKOTA/GRAND FORKS ND
400 AM CST THU DEC 25 2014

 **SATELLITE DATA USED TO AUGMENT SKY COVER AT AUTOMATED STATIONS**
 *****  WEATHER ACROSS EASTERN NORTH DAKOTA  *****

CITY           SKY/WX    TMP DP  RH WIND       PRES   REMARKS
GRAND FORKS    CLOUDY    28  27  93 NW10      29.52R WCI  19
GRAND FORKS AF CLOUDY    29  28  99 N9        29.52R WCI  20
GRAND CITY NWS   N/A     28 N/A N/A NW5         N/A  WCI  23
BUXTON           N/A     27  26  96 NW12        N/A  WCI  16
DEVILS LAKE    CLOUDY    21  18  86 W8        29.53R WCI  12
FARGO          CLOUDY    27  24  89 SW6       29.52R WCI  20
WAHPETON ARPT  CLOUDY    30  28  93 SW3       29.56R
$$

 *****  WEATHER ACROSS CENTRAL AND WESTERN NORTH DAKOTA  *****

CITY           SKY/WX    TMP DP  RH WIND       PRES   REMARKS
JAMESTOWN      CLOUDY    25  21  85 NW5       29.53R WCI  19
BISMARCK       CLOUDY    25  23  92 W6        29.58R WCI  18
MINOT          CLOUDY    27  22  81 W9        29.55R WCI  18
MINOT AFB      CLOUDY    27  26  99 NW14      29.55R WCI  15
GARRISON         N/A     22  19  89 NW10      29.56R WCI  11
WILLISTON      CLOUDY    26  22  84 NW7       29.64R WCI  18
DICKINSON      MOCLDY    26  21  81 NW13      29.58R WCI  15
HETTINGER      CLOUDY    30  26  85 N12       29.56R WCI  20
$$

 *****  OTHER OBSERVATIONS NORTHEAST NORTH DAKOTA  *****

CITY           SKY/WX    TMP DP  RH WIND       PRES   REMARKS
WALHALLA         N/A     28  28 100 NW9       29.50R WCI  20
LANGDON        CLOUDY    23  21  93 W12       29.48R WCI  12
CAVALIER       CLOUDY    28  25  86 W7        29.50R WCI  21
GRAFTON        NOT AVBL
CANDO          FAIR      16  14  93 W8        29.53R WCI   5
FORT TOTTEN      N/A     19  17  93 NW3       29.95
ROLLA          CLOUDY    21  21 100 NW15      29.51R WCI   8
RUGBY          FAIR      14  14 100 W7        29.55R WCI   4
 ***** THE ABOVE OBSERVATIONS ARE NON NWS ARE NOT QUALITY
        CONTROLLED AND MAY MIS-REPORT RAIN FOR SNOW...
$$

 *****  OTHER OBSERVATIONS SOUTHEAST NORTH DAKOTA *****

CITY           SKY/WX    TMP DP  RH WIND       PRES   REMARKS
COOPERSTOWN    NOT AVBL
VALLEY CITY    MIX PCPN  25  25 100 NW13      29.53R WCI  13
OAKES            N/A     28  28 100 NW7       29.55R WCI  21
GWINNER        SUNNY     30  30 100 CALM      29.56R
BUFFALO        NOT AVBL
WYNDMERE         N/A     28  27  93 W7          N/A  WCI  21
 ***** THE ABOVE OBSERVATIONS ARE NON NWS ARE NOT QUALITY
       CONTROLLED AND MAY MIS-REPORT RAIN FOR SNOW...
$$

  *****  WEATHER ACROSS NORTHERN MINNESOTA  *****

CITY           SKY/WX    TMP DP  RH WIND       PRES   REMARKS
FLAG ISLAND    CLOUDY    28  27  93 SW8       29.43R FOG     WCI  20
WARROAD        CLOUDY    30  27  86 W6        29.45R FOG     WCI  24
ROSEAU         CLOUDY    30  27  86 W8        29.46R WCI  23
HALLOCK        CLOUDY    30  27  86 W13       29.49R WCI  20
THF RVR FALLS  CLOUDY    28  27  93 W9        29.49R WCI  20
HALSTAD          N/A     27  25  91 NW6         N/A  WCI  21
FOSSTON        CLOUDY    27  27 100 SW14      29.49R WCI  15
BAUDETTE       CLOUDY    29  27  92 SW7       29.44R FOG     WCI  22
WASKISH        CLOUDY    30  28  93 CALM      29.46S
CROOKSTON      CLOUDY    28  27  93 NW9       29.53R WCI  20
$$
  *****  WEATHER ACROSS CENTRAL AND WEST MINNESOTA  *****

CITY           SKY/WX    TMP DP  RH WIND       PRES   REMARKS
BEMIDJI        CLOUDY    29  27  92 SW5       29.48S WCI  24
PARK RAPIDS    CLOUDY    30  26  85 W9        29.49R WCI  22
WADENA         CLOUDY    28  27  93 SW8       29.52R WCI  20
DETROIT LAKES  CLOUDY    30  30 100 SW6       29.52R WCI  24
MOORHEAD       CLOUDY    28  28 100 S7        29.54R WCI  21
FERGUS FALLS   CLOUDY    28  28 100 SW6       29.57R WCI  22
ELBOW LAKE     CLOUDY    28  27  95 S8        29.54S WCI  20
MORRIS MN      LGT SNOW  28  27  93 S5        29.55S WCI  23
STAPLES        CLOUDY    28  27  93 SW7       29.53R WCI  21
WHEATON        CLOUDY    28  27  93 S6        29.57S WCI  22
$$
  *****  WEATHER ELSEWHERE ACROSS MINNESOTA  *****

CITY           SKY/WX    TMP DP  RH WIND       PRES   REMARKS
DULUTH         CLOUDY    31  26  82 SW14      29.50R WCI  21
INTRNTL FALLS  CLOUDY    29  26  89 W8        29.45R WCI  21
ELY            CLOUDY    30  28  93 SW6       29.46S WCI  24
CLOQUET        CLOUDY    30  28  93 SW8       29.52R WCI  23
BRAINERD       CLOUDY    30  26  85 SW12      29.53S WCI  20
HIBBING        CLOUDY    31  26  82 VRB5      29.49S
ALEXANDRIA     CLOUDY    28  26  92 SW9       29.55R WCI  19
SAINT CLOUD    CLOUDY    32  27  81 S12       29.58R WCI  23
MINNEAPOLIS    CLOUDY    30  25  81 S9        29.63S WCI  22
$$

  *****  WEATHER ACROSS SOUTH DAKOTA  *****

CITY           SKY/WX    TMP DP  RH WIND       PRES   REMARKS
SIOUX FALLS    CLOUDY    27  24  89 S7        29.55R WCI  19
BROOKINGS      NOT AVBL
WATERTOWN      CLOUDY    27  24  89 S6        29.51S WCI  20
HURON          MOCLDY    26  23  88 CALM      29.54R
SISSETON         N/A     31  27  85 W3        29.54R
ABERDEEN       CLOUDY    29  26  89 CALM      29.55R
MITCHELL       CLOUDY    27  25  92 E6        29.52F WCI  20
PIERRE         MIX PCPN  30  25  81 N8        29.52R WCI  22
MOBRIDGE       CLOUDY    30  27  88 N5        29.53R
RAPID CITY     FLURRIES  31  30  96 N9        29.51R WCI  23
$$

  *****  SOME WEATHER IN NEARBY STATES *****

CITY           SKY/WX    TMP DP  RH WIND       PRES   REMARKS
GLASGOW MT     CLOUDY    28  21  75 NW15      29.68R WCI  16
GREAT FALLS MT MIX PCPN  24  20  84 N7        29.74R WCI  16
CHEYENNE WY    MOCLDY    30  18  60 N5        29.40F
SCOTTSBLUFF NE CLOUDY    34  29  82 SE3       29.44R
OMAHA NE       CLOUDY    30  27  88 S12       29.66F WCI  20
DES MOINES IA  CLEAR     31  27  85 S12       29.73F WCI  22
DAVENPORT IA   CLOUDY    32  28  85 SW14      29.81R WCI  22
CHICAGO IL     CLOUDY    35  28  75 W10       29.78R
EAU CLAIRE WI  CLOUDY    32  27  81 SW8       29.64R WCI  25
LA CROSSE WI   CLOUDY    33  27  78 SW13      29.70R WCI  24
$$

  *****  SOME NATIONAL WEATHER *****

CITY           SKY/WX    TMP DP  RH WIND       PRES   REMARKS
LA GUARDIA NY  LGT RAIN  60  50  69 W16G29    29.54R
RALEIGH NC     CLOUDY    57  48  72 W10       29.79R
ATLANTA GA     MOCLDY    42  35  76 W7        30.03R
NEW ORLEANS LA CLEAR     42  36  79 CALM      30.18R
OKLAHOMA CITY  PTCLDY    33  25  72 S12       29.82F WCI  24
ALBUQUERQUE NM CLOUDY    32  11  41 CALM      29.79F
SALT LAKE CITY LGT SNOW  33  30  88 NW12      29.51R FOG     WCI  24
LOS ANGELES CA MOCLDY    58  44  60 N17G24    29.80R
BOISE ID       CLOUDY    32  25  75 NW24G31   29.74R WCI  19
SEATTLE WA     FOG       39  37  93 SE9       30.09R VSB 1/4
$$

*** WEATHER ACROSS MANITOBA...SASKATCHEWAN AND ONTARIO ***
                ***ONTARIO***

CITY           SKY/WX    TMP DP  RH WIND       PRES   REMARKS
GERALDTON      LGT SNOW  21  19  93 W6        29.40R WCI  14
THUNDER BAY    FLURRIES  27  27 100 SW2       29.47S
SIOUX LOOKOUT  FLURRIES  28  28 100 S2        29.41
TORONTO        MOCLDY    39  34  81 W20G30    29.48
BIG TROUT LK   FLURRIES  19  19 100 VRB2      29.48S
PICKLE LAKE    NOT AVBL
DRYDEN         FLURRIES  28  28 100 W7        29.41R WCI  21
KENORA         LGT SNOW  27  27 100 SW7       29.41R WCI  19
$$
                *** MANITOBA***

CITY           SKY/WX    TMP DP  RH WIND       PRES   REMARKS
BRANDON        CLOUDY    27  23  86 NW18      29.53R WCI  13
DAUPHIN        CLOUDY    23  21  93 NW13G18   29.56R WCI  11
ISLAND LAKE    FLURRIES  19  18  93 N6        29.47S WCI  11
PILOT MOUND      N/A     25  23  93 NW14        N/A  WCI  13
THE PAS        CLOUDY    23  21  93 N8        29.61R WCI  14
THOMPSON       LGT SNOW  16  14  93 N5        29.58R WCI   9
WINNIPEG       FLURRIES  27  23  86 NW18      29.48R WCI  13
CHURCHILL      LGT SNOW  16  16 100 SE2       29.64S
GILLAM         LGT SNOW  18  16  93 NE3       29.58S
$$
                ***SASKATCHEWAN***

CITY           SKY/WX    TMP DP  RH WIND       PRES   REMARKS
ESTEVAN        FLURRIES  27  23  86 NW17G24   29.59R WCI  14
KINDERSLEY     FLURRIES  14  10  85 N16       29.78R WCI  -2
LLOYDMINSTER   FLURRIES   9   5  85 N10       29.84R WCI  -6
PRINCE ALBERT  FLURRIES  18  14  86 N17       29.73R WCI   2
REGINA         FLURRIES  23  21  93 NW14      29.65R WCI  11
YORKTON        NOT AVBL
N. BATTLEFORD  CLOUDY    14  12  92 NW12      29.82R WCI   0


USA.gov is the U.S. government's official web portal to all federal, state and local government web resources and services.